"startDT [UTC]","vpos","CH4 [ppm]","stdev(CH4) [ppm]","CO2 [ppm]","stdev(CO2) [ppm]","H2O [ppm]","stdev(H2O)","p_LGR [torr]","T_LGR [C]","mt1_LGR [us]","mt2_LGR [us]","T_ECpre [C]","T_EC1 [C]","T_EC2 [C]","p_inlet [hPa]","p_in [hPa]","p_out [hPa]","T_inlet [C]","RH_inlet [%]","dwpt_inlet [C]","T_vent [C]","RH_vent [%]","dwpt_vent [C]","flow_vent [l min-1]","flow_inlet [l min-1]","dwpt_sample [C]","T_room [C]"
2012-04-11 00:00:00,0.0,1.9203,0.0010,402.88,0.21,115.4,30.2,138.12,28.41,24.62,36.34,0.04,-272.74,-272.74,-52,554,-921,23.1,3.8,-21.8,23.1,3.9,-21.5,5.73,2.43,-26.3,26.1
2012-04-11 00:01:00,0.0,1.9198,0.0012,402.98,0.23,106.0,37.6,138.13,28.39,24.61,36.33,0.04,-272.74,-272.74,-52,554,-922,23.1,3.8,-21.8,23.0,3.9,-21.4,5.73,2.41,-26.4,26.1
2012-04-11 00:02:00,0.0,1.9192,0.0009,402.92,0.21,94.3,38.7,138.13,28.38,24.62,36.33,0.04,-272.73,-272.74,-52,554,-922,23.0,3.8,-21.8,23.0,4.0,-21.4,5.73,2.26,-26.5,25.8
2012-04-11 00:03:00,0.0,1.9185,0.0008,402.84,0.25,81.5,29.2,138.14,28.36,24.61,36.33,0.04,-272.74,-272.74,-52,553,-922,23.0,3.9,-21.6,22.9,4.0,-21.3,5.73,2.35,-26.5,25.6
2012-04-11 00:04:00,0.0,1.9183,0.0010,402.77,0.23,70.9,35.6,138.14,28.34,24.61,36.33,0.04,-272.73,-272.74,-53,554,-921,23.0,3.9,-21.7,22.9,4.0,-21.4,5.73,2.46,-26.6,25.5
2012-04-11 00:05:00,0.0,1.9174,0.0010,402.75,0.22,71.5,33.3,138.14,28.32,24.61,36.33,0.04,-272.74,-272.74,-53,553,-922,22.9,3.9,-21.7,22.8,4.0,-21.4,5.73,2.33,-26.7,25.6
2012-04-11 00:06:00,0.0,1.9175,0.0011,402.72,0.24,63.7,32.0,138.14,28.30,24.61,36.33,0.04,-272.74,-272.74,-52,553,-921,22.9,3.9,-21.6,22.8,4.0,-21.3,5.73,2.28,-26.7,26.2
2012-04-11 00:07:00,0.0,1.9166,0.0010,402.80,0.23,70.1,37.7,138.14,28.28,24.61,36.32,0.04,-272.74,-272.74,-53,552,-921,22.9,3.9,-21.6,22.8,4.0,-21.3,5.73,2.42,-26.6,26.6
2012-04-11 00:08:00,0.0,1.9169,0.0010,402.75,0.23,70.8,38.2,138.13,28.27,24.61,36.33,0.04,-272.74,-272.74,-52,553,-921,22.9,3.9,-21.4,22.9,4.1,-21.1,5.73,2.36,-26.6,26.9
2012-04-11 00:09:00,0.0,1.9171,0.0009,402.77,0.23,91.9,35.6,138.13,28.27,24.61,36.33,0.04,-272.74,-272.74,-53,553,-921,22.9,4.0,-21.4,22.9,4.1,-21.0,5.73,2.28,-26.5,27.1
2012-04-11 00:10:00,0.0,1.9170,0.0009,402.71,0.21,91.3,43.1,138.13,28.27,24.62,36.33,0.04,-272.74,-272.74,-52,552,-921,22.9,4.0,-21.3,22.9,4.1,-21.0,5.73,2.38,-26.4,27.2
2012-04-11 00:11:00,0.0,1.9173,0.0009,402.75,0.24,100.0,36.7,138.12,28.27,24.62,36.33,0.04,-272.74,-272.73,-52,553,-921,23.0,4.0,-21.3,22.9,4.1,-20.9,5.73,2.42,-26.3,27.4
2012-04-11 00:12:00,0.0,1.9180,0.0010,402.83,0.21,115.3,35.8,138.12,28.28,24.61,36.33,0.04,-272.74,-272.73,-52,553,-921,23.0,4.1,-21.1,23.0,4.2,-20.7,5.73,2.34,-26.2,27.5
2012-04-11 00:13:00,0.0,1.9182,0.0011,402.76,0.28,125.1,37.2,138.12,28.29,24.62,36.33,0.04,-272.74,-272.74,-52,552,-921,23.0,4.1,-20.9,23.0,4.2,-20.6,5.73,2.29,-26.1,27.6
2012-04-11 00:14:00,0.0,1.9185,0.0010,402.76,0.24,126.4,35.1,138.11,28.30,24.62,36.34,0.04,-272.74,-272.74,-52,553,-921,23.0,4.1,-20.9,23.0,4.3,-20.5,5.73,2.33,-26.0,27.7
2012-04-11 00:15:00,0.0,1.9192,0.0008,402.79,0.21,138.3,43.9,138.11,28.31,24.61,36.34,0.04,-272.74,-272.74,-52,553,-921,23.0,4.2,-20.8,23.1,4.3,-20.4,5.73,2.40,-26.0,27.7
2012-04-11 00:16:00,0.0,1.9188,0.0009,402.94,0.22,144.6,34.7,138.11,28.32,24.61,36.34,0.04,-272.74,-272.74,-52,553,-921,23.1,4.2,-20.7,23.1,4.3,-20.4,5.73,2.39,-25.9,27.8
2012-04-11 00:17:00,0.0,1.9187,0.0012,402.97,0.27,145.0,36.7,138.11,28.34,24.61,36.35,0.04,-272.74,-272.74,-52,553,-920,23.1,4.2,-20.7,23.1,4.3,-20.3,5.73,2.32,-25.8,27.9
2012-04-11 00:18:00,0.0,1.9182,0.0008,403.01,0.21,157.7,36.9,138.10,28.35,24.62,36.34,0.04,-272.74,-272.74,-51,553,-921,23.1,4.2,-20.6,23.1,4.4,-20.2,5.73,2.29,-25.8,27.9
2012-04-11 00:19:00,0.0,1.9184,0.0010,402.95,0.20,160.2,40.7,138.10,28.37,24.62,36.35,0.27,-270.83,-272.40,-52,553,-921,23.1,4.3,-20.4,23.2,4.4,-20.0,5.42,2.46,-29.9,28.0
2012-04-11 00:20:00,0.0,1.9193,0.0011,402.98,0.25,169.1,35.8,138.10,28.38,24.62,36.35,0.04,-272.74,-272.74,-52,553,-921,23.2,4.3,-20.2,23.2,4.4,-19.9,5.73,2.41,-25.6,28.1
2012-04-11 00:21:00,0.0,1.9193,0.0010,403.09,0.20,167.8,36.4,138.10,28.40,24.62,36.35,0.04,-272.74,-272.73,-51,554,-921,23.2,4.4,-20.1,23.2,4.5,-19.8,5.73,2.37,-25.6,28.1
2012-04-11 00:22:00,0.0,1.9201,0.0011,403.13,0.22,181.6,35.1,138.10,28.42,24.61,36.35,0.04,-272.73,-272.73,-51,554,-921,23.2,4.4,-20.0,23.3,4.5,-19.6,5.73,2.28,-25.5,28.1
2012-04-11 00:23:00,0.0,1.9202,0.0009,403.16,0.25,165.4,32.6,138.10,28.43,24.62,36.34,0.04,-272.73,-272.73,-52,554,-921,23.3,4.5,-19.8,23.3,4.6,-19.4,5.73,2.35,-25.5,27.4
2012-04-11 00:24:00,0.0,1.9200,0.0010,403.10,0.28,162.7,36.3,138.10,28.44,24.62,36.35,0.04,-272.74,-272.74,-51,554,-921,23.3,4.5,-19.7,23.3,4.7,-19.3,5.73,2.37,-25.5,27.0
2012-04-11 00:25:00,0.0,1.9197,0.0009,403.05,0.22,170.8,37.4,138.11,28.45,24.62,36.35,0.04,-272.73,-272.73,-52,554,-922,23.3,4.6,-19.5,23.2,4.8,-19.1,5.73,2.38,-25.7,26.8
2012-04-11 00:26:00,0.0,1.9196,0.0009,403.04,0.23,150.5,35.7,138.11,28.44,24.62,36.35,0.04,-272.74,-272.73,-52,554,-922,23.2,4.7,-19.3,23.2,4.8,-18.9,5.73,2.27,-25.7,26.5
2012-04-11 00:27:00,0.0,1.9197,0.0011,403.06,0.23,149.1,36.0,138.12,28.44,24.61,36.34,0.04,-272.74,-272.74,-52,555,-922,23.2,4.8,-19.1,23.1,4.9,-18.7,5.73,2.46,-25.8,26.3
2012-04-11 00:28:00,0.0,1.9192,0.0011,403.08,0.29,130.8,37.1,138.12,28.43,24.62,36.34,0.04,-272.74,-272.74,-52,554,-922,23.1,4.8,-19.0,23.1,5.0,-18.6,5.73,2.35,-25.9,26.0
2012-04-11 00:29:00,0.0,1.9192,0.0010,402.92,0.25,125.8,36.3,138.13,28.42,24.61,36.34,0.04,-272.73,-272.73,-52,554,-922,23.1,4.8,-19.0,23.1,5.0,-18.6,5.73,2.26,-26.0,25.8
2012-04-11 00:30:00,0.0,1.9186,0.0011,403.05,0.27,114.0,35.6,138.13,28.40,24.62,36.33,0.04,-272.74,-272.74,-52,555,-922,23.1,4.8,-19.0,23.0,5.0,-18.6,5.73,2.43,-26.1,25.8
2012-04-11 00:31:00,0.0,1.9182,0.0011,403.03,0.24,103.6,34.6,138.13,28.38,24.62,36.33,0.04,-272.73,-272.74,-52,554,-922,23.0,4.8,-19.0,23.0,5.0,-18.7,5.73,2.42,-26.2,25.7
2012-04-11 00:32:00,0.0,1.9173,0.0010,402.93,0.26,86.4,33.3,138.14,28.36,24.62,36.33,0.04,-272.74,-272.74,-52,554,-922,23.0,4.8,-19.1,22.9,5.0,-18.7,5.73,2.26,-26.3,25.7
2012-04-11 00:33:00,0.0,1.9169,0.0009,402.86,0.22,93.9,35.1,138.14,28.34,24.62,36.33,0.04,-272.74,-272.74,-52,554,-921,23.0,4.9,-19.0,22.9,5.0,-18.6,5.73,2.33,-26.3,25.5
2012-04-11 00:34:00,0.0,1.9169,0.0009,402.76,0.25,77.2,35.1,138.14,28.32,24.61,36.33,0.04,-272.74,-272.74,-52,554,-921,22.9,4.9,-18.9,22.9,5.1,-18.6,5.73,2.46,-26.4,25.9
2012-04-11 00:35:00,0.0,1.9168,0.0010,402.83,0.27,72.6,43.2,138.14,28.31,24.62,36.33,0.04,-272.73,-272.74,-52,553,-921,22.9,4.9,-18.9,22.9,5.1,-18.5,5.73,2.25,-26.3,26.5
2012-04-11 00:36:00,0.0,1.9172,0.0010,402.88,0.22,88.1,34.5,138.13,28.29,24.62,36.33,0.04,-272.74,-272.74,-52,553,-921,22.9,5.0,-18.8,22.9,5.1,-18.5,5.73,2.42,-26.2,26.8
2012-04-11 00:37:00,0.0,1.9176,0.0010,402.88,0.20,98.0,34.8,138.13,28.29,24.62,36.33,0.04,-272.74,-272.74,-52,553,-921,22.9,4.9,-19.0,22.9,5.0,-18.6,5.73,2.39,-26.2,27.0
2012-04-11 00:38:00,0.0,1.9184,0.0010,403.03,0.25,109.0,38.6,138.13,28.29,24.62,36.33,0.04,-272.74,-272.74,-52,553,-921,23.0,4.8,-19.1,23.0,5.0,-18.8,5.73,2.28,-26.0,27.2
2012-04-11 00:39:00,0.0,1.9186,0.0010,402.86,0.27,115.4,43.2,138.12,28.29,24.62,36.34,0.04,-272.74,-272.73,-52,553,-921,23.0,4.7,-19.3,23.0,4.9,-18.9,5.73,2.33,-26.0,27.3
2012-04-11 00:40:00,0.0,1.9196,0.0011,402.82,0.25,134.7,35.7,138.12,28.30,24.61,36.34,0.04,-272.74,-272.74,-52,553,-921,23.0,4.7,-19.4,23.0,4.8,-19.1,5.73,2.41,-25.9,27.5
2012-04-11 00:41:00,0.0,1.9196,0.0011,402.86,0.26,144.0,39.4,138.11,28.31,24.62,36.34,0.04,-272.74,-272.74,-52,553,-921,23.1,4.6,-19.6,23.1,4.8,-19.2,5.73,2.39,-25.8,27.6
2012-04-11 00:42:00,0.0,1.9202,0.0010,402.96,0.26,142.8,37.1,138.11,28.32,24.62,36.34,0.04,-272.73,-272.73,-52,553,-921,23.1,4.6,-19.7,23.1,4.7,-19.3,5.73,2.31,-25.7,27.7
2012-04-11 00:43:00,0.0,1.9200,0.0012,403.06,0.23,160.8,28.4,138.11,28.33,24.62,36.34,0.04,-272.74,-272.74,-52,553,-920,23.1,4.5,-19.8,23.1,4.7,-19.4,5.73,2.30,-25.6,27.8
2012-04-11 00:44:00,0.0,1.9199,0.0010,403.16,0.28,172.5,34.5,138.11,28.34,24.62,36.34,0.04,-272.74,-272.74,-52,553,-921,23.1,4.5,-19.9,23.1,4.6,-19.5,5.73,2.36,-25.5,27.8
2012-04-11 00:45:00,0.0,1.9204,0.0008,403.16,0.20,171.5,36.1,138.10,28.36,24.62,36.35,0.04,-272.74,-272.74,-51,553,-921,23.2,4.5,-19.9,23.2,4.6,-19.5,5.73,2.41,-25.5,27.9
2012-04-11 00:46:00,0.0,1.9210,0.0010,403.18,0.28,171.8,36.2,138.10,28.37,24.62,36.35,0.04,-272.73,-272.74,-52,553,-921,23.2,4.5,-19.8,23.2,4.6,-19.5,5.73,2.37,-25.4,28.0
2012-04-11 00:47:00,0.0,1.9209,0.0008,403.22,0.23,178.9,41.7,138.10,28.39,24.62,36.36,0.04,-272.74,-272.74,-52,554,-921,23.2,4.5,-19.7,23.2,4.6,-19.4,5.73,2.31,-25.3,28.0
2012-04-11 00:48:00,0.0,1.9212,0.0010,403.23,0.29,183.8,35.3,138.10,28.41,24.62,36.35,0.04,-272.74,-272.73,-51,554,-921,23.3,4.6,-19.6,23.3,4.7,-19.2,5.73,2.30,-25.2,28.1
2012-04-11 00:49:00,0.0,1.9207,0.0009,403.21,0.29,196.1,33.0,138.10,28.42,24.62,36.36,0.04,-272.73,-272.73,-51,554,-921,23.3,4.6,-19.5,23.3,4.7,-19.1,5.73,2.37,-25.2,28.1
2012-04-11 00:50:00,0.0,1.9214,0.0008,403.42,0.28,189.9,36.8,138.10,28.44,24.62,36.35,0.04,-272.74,-272.73,-52,554,-921,23.3,4.6,-19.4,23.3,4.8,-19.0,5.73,2.42,-25.1,27.6
2012-04-11 00:51:00,0.0,1.9212,0.0011,403.40,0.30,186.5,36.5,138.10,28.45,24.62,36.35,0.04,-272.74,-272.74,-51,554,-921,23.3,4.6,-19.3,23.3,4.8,-18.9,5.73,2.24,-25.2,27.2
2012-04-11 00:52:00,0.0,1.9208,0.0010,403.45,0.25,188.2,36.6,138.11,28.46,24.62,36.35,0.04,-272.74,-272.73,-52,554,-921,23.3,4.6,-19.3,23.3,4.8,-18.9,5.73,2.46,-25.2,26.9
2012-04-11 00:53:00,0.0,1.9212,0.0008,403.54,0.18,178.5,35.2,138.11,28.46,24.62,36.35,0.04,-272.73,-272.74,-52,555,-922,23.3,4.7,-19.2,23.3,4.8,-18.8,5.73,2.31,-25.3,26.7
2012-04-11 00:54:00,0.0,1.9207,0.0009,403.50,0.21,169.4,38.0,138.11,28.46,24.62,36.34,0.04,-272.74,-272.73,-52,554,-921,23.3,4.7,-19.2,23.2,4.9,-18.9,5.73,2.31,-25.4,26.3
2012-04-11 00:55:00,0.0,1.9202,0.0009,403.50,0.23,157.9,33.5,138.12,28.45,24.62,36.34,0.04,-272.74,-272.73,-52,555,-922,23.2,4.7,-19.2,23.2,4.9,-18.8,5.73,2.47,-25.5,26.1
2012-04-11 00:56:00,0.0,1.9202,0.0009,403.50,0.23,151.0,37.7,138.12,28.44,24.62,36.34,0.04,-272.74,-272.74,-52,555,-921,23.2,4.7,-19.2,23.1,4.9,-18.9,5.73,2.30,-25.6,26.0
2012-04-11 00:57:00,0.0,1.9195,0.0012,403.50,0.22,140.8,39.7,138.13,28.42,24.62,36.35,0.04,-272.74,-272.74,-52,555,-922,23.2,4.7,-19.2,23.1,4.9,-18.9,5.73,2.30,-25.7,25.9
2012-04-11 00:58:00,0.0,1.9190,0.0010,403.47,0.24,124.4,40.2,138.13,28.41,24.62,36.34,0.04,-272.73,-272.74,-52,554,-922,23.1,4.8,-19.1,23.0,5.0,-18.8,5.73,2.46,-25.7,25.8
2012-04-11 00:59:00,0.0,1.9185,0.0010,403.39,0.28,122.3,32.4,138.13,28.39,24.62,36.34,0.04,-272.73,-272.74,-52,554,-922,23.1,4.9,-18.9,23.0,5.0,-18.6,5.73,2.34,-25.8,25.7
2012-04-11 01:00:00,0.0,1.9180,0.0012,403.44,0.26,111.5,32.8,138.14,28.37,24.62,36.33,0.04,-272.74,-272.74,-52,554,-921,23.0,4.9,-18.9,23.0,5.1,-18.6,5.73,2.26,-25.8,25.6
2012-04-11 01:01:00,0.0,1.9171,0.0009,403.46,0.23,101.8,33.7,138.14,28.35,24.61,36.33,0.04,-272.74,-272.74,-52,554,-922,23.0,4.8,-19.0,22.9,5.0,-18.7,5.73,2.44,-25.9,25.8
2012-04-11 01:02:00,0.0,1.9168,0.0009,403.54,0.26,100.6,35.7,138.14,28.33,24.62,36.32,0.04,-272.74,-272.74,-52,554,-921,23.0,4.8,-19.1,22.9,5.0,-18.8,5.73,2.32,-25.9,26.3
2012-04-11 01:03:00,0.0,1.9170,0.0010,403.45,0.20,107.5,34.2,138.14,28.32,24.62,36.33,0.04,-272.73,-272.74,-52,554,-921,23.0,4.8,-19.1,22.9,5.0,-18.8,5.73,2.42,-25.8,26.7
2012-04-11 01:04:00,0.0,1.9174,0.0011,403.42,0.26,107.5,33.1,138.13,28.32,24.62,36.33,0.04,-272.74,-272.73,-52,554,-921,23.0,4.8,-19.2,23.0,4.9,-18.9,5.73,2.27,-25.7,27.0
2012-04-11 01:05:00,0.0,1.9179,0.0011,403.49,0.23,134.6,42.8,138.12,28.32,24.61,36.33,0.04,-272.73,-272.74,-52,553,-921,23.1,4.7,-19.4,23.0,4.9,-19.0,5.73,2.35,-25.6,27.2
2012-04-11 01:06:00,0.0,1.9184,0.0010,403.45,0.26,139.2,36.8,138.12,28.32,24.61,36.34,0.04,-272.73,-272.74,-52,554,-921,23.1,4.6,-19.6,23.0,4.8,-19.2,5.73,2.42,-25.5,27.3
2012-04-11 01:07:00,0.0,1.9184,0.0009,403.37,0.30,156.9,38.5,138.12,28.33,24.62,36.34,0.04,-272.74,-272.74,-52,554,-921,23.1,4.6,-19.7,23.1,4.7,-19.3,5.73,2.36,-25.4,27.5
2012-04-11 01:08:00,0.0,1.9186,0.0009,403.50,0.21,161.5,40.9,138.12,28.33,24.62,36.34,0.04,-272.74,-272.74,-52,553,-921,23.1,4.5,-19.8,23.1,4.7,-19.4,5.73,2.29,-25.3,27.6
2012-04-11 01:09:00,0.0,1.9196,0.0009,403.40,0.22,169.4,36.7,138.11,28.35,24.62,36.35,0.04,-272.74,-272.73,-52,553,-921,23.1,4.5,-19.9,23.1,4.6,-19.5,5.73,2.32,-25.3,27.7
2012-04-11 01:10:00,0.0,1.9199,0.0011,403.53,0.21,171.8,35.0,138.11,28.36,24.62,36.35,0.04,-272.73,-272.74,-52,554,-921,23.2,4.5,-19.9,23.2,4.6,-19.5,5.73,2.38,-25.2,27.8
2012-04-11 01:11:00,0.0,1.9205,0.0010,403.49,0.20,180.1,35.1,138.11,28.37,24.62,36.35,0.04,-272.74,-272.74,-52,554,-921,23.2,4.5,-19.8,23.2,4.6,-19.4,5.73,2.40,-25.1,27.9
2012-04-11 01:12:00,0.0,1.9207,0.0011,403.59,0.25,194.7,36.2,138.10,28.39,24.62,36.35,0.04,-272.73,-272.74,-52,554,-921,23.2,4.5,-19.7,23.2,4.6,-19.4,5.73,2.35,-25.0,28.0
2012-04-11 01:13:00,0.0,1.9210,0.0010,403.56,0.24,205.0,36.1,138.10,28.40,24.62,36.35,0.04,-272.73,-272.73,-52,554,-921,23.3,4.6,-19.5,23.3,4.7,-19.2,5.73,2.29,-24.9,28.0
2012-04-11 01:14:00,0.0,1.9213,0.0009,403.57,0.21,200.4,30.6,138.10,28.42,24.62,36.35,0.04,-272.74,-272.74,-52,554,-921,23.3,4.6,-19.4,23.3,4.8,-18.9,5.73,2.32,-24.9,28.1
2012-04-11 01:15:00,0.0,1.9215,0.0011,403.67,0.23,210.7,33.8,138.10,28.44,24.62,36.35,0.04,-272.74,-272.74,-52,554,-921,23.3,4.7,-19.2,23.3,4.8,-18.8,5.73,2.38,-24.8,28.1
2012-04-11 01:16:00,0.0,1.9212,0.0011,403.92,0.22,217.3,38.1,138.10,28.46,24.61,36.35,0.04,-272.73,-272.73,-51,554,-921,23.4,4.7,-19.1,23.3,4.9,-18.7,5.73,2.40,-24.7,28.2
2012-04-11 01:17:00,0.0,1.9210,0.0011,404.08,0.23,222.4,34.7,138.10,28.48,24.62,36.35,0.04,-272.74,-272.74,-52,554,-921,23.4,4.7,-19.0,23.4,4.9,-18.6,5.73,2.26,-24.7,27.7
2012-04-11 01:18:00,0.0,1.9210,0.0008,404.00,0.26,213.1,37.1,138.10,28.49,24.62,36.35,0.04,-272.74,-272.74,-52,554,-921,23.4,4.8,-18.9,23.4,5.0,-18.5,5.73,2.43,-24.7,27.2
2012-04-11 01:19:00,0.0,1.9211,0.0012,403.95,0.25,204.5,35.9,138.10,28.50,24.62,36.35,0.04,-272.74,-272.73,-52,555,-922,23.4,4.8,-18.8,23.3,5.0,-18.4,5.73,2.27,-24.8,26.9
2012-04-11 01:20:00,0.0,1.9208,0.0012,404.01,0.24,198.2,28.2,138.11,28.50,24.62,36.35,0.04,-272.74,-272.74,-51,555,-922,23.4,4.8,-18.8,23.3,5.0,-18.4,5.73,2.47,-24.9,26.6
2012-04-11 01:21:00,0.0,1.9206,0.0010,403.88,0.22,193.2,35.5,138.11,28.50,24.62,36.35,0.04,-272.74,-272.74,-52,555,-922,23.3,4.9,-18.8,23.3,5.0,-18.4,5.73,2.27,-25.0,26.3
2012-04-11 01:22:00,0.0,1.9199,0.0010,403.66,0.27,177.9,33.2,138.12,28.49,24.62,36.35,0.04,-272.73,-272.73,-52,555,-922,23.3,4.9,-18.8,23.2,5.0,-18.4,5.73,2.35,-25.0,26.2
2012-04-11 01:23:00,0.0,1.9203,0.0009,403.56,0.19,170.3,38.0,138.12,28.48,24.62,36.34,0.04,-272.73,-272.73,-52,555,-922,23.3,4.9,-18.7,23.2,5.1,-18.4,5.73,2.45,-25.1,26.0
2012-04-11 01:24:00,0.0,1.9200,0.0009,403.61,0.20,178.5,34.1,138.13,28.47,24.62,36.34,0.04,-272.74,-272.74,-52,555,-922,23.3,4.9,-18.7,23.2,5.1,-18.3,5.73,2.27,-25.2,25.9
2012-04-11 01:25:00,0.0,1.9195,0.0010,403.43,0.28,160.7,34.6,138.13,28.46,24.62,36.34,0.04,-272.74,-272.74,-52,555,-922,23.2,4.9,-18.7,23.1,5.1,-18.4,5.73,2.32,-25.2,25.9
2012-04-11 01:26:00,0.0,1.9191,0.0011,403.38,0.22,150.0,32.9,138.13,28.44,24.62,36.34,0.04,-272.73,-272.74,-52,555,-922,23.2,4.9,-18.7,23.1,5.1,-18.4,5.73,2.46,-25.3,26.0
2012-04-11 01:27:00,0.0,1.9184,0.0008,403.38,0.20,138.0,34.0,138.13,28.42,24.62,36.34,0.04,-272.74,-272.74,-52,555,-922,23.2,4.9,-18.7,23.1,5.1,-18.4,5.73,2.31,-25.4,25.9
2012-04-11 01:28:00,0.0,1.9175,0.0010,403.26,0.24,122.6,34.5,138.14,28.40,24.62,36.34,0.04,-272.73,-272.74,-52,555,-922,23.1,5.0,-18.7,23.0,5.1,-18.3,5.73,2.27,-25.4,25.7
2012-04-11 01:29:00,0.0,1.9174,0.0011,403.29,0.27,117.3,35.9,138.14,28.38,24.62,36.33,0.04,-272.73,-272.74,-52,554,-922,23.1,4.9,-18.7,23.0,5.1,-18.4,5.73,2.47,-25.4,26.2
2012-04-11 01:30:00,0.0,1.9171,0.0010,403.23,0.22,128.1,36.8,138.13,28.37,24.61,36.33,0.04,-272.74,-272.74,-52,554,-921,23.1,4.9,-18.8,23.0,5.1,-18.5,5.73,2.25,-25.4,26.7
2012-04-11 01:31:00,0.0,1.9166,0.0009,403.20,0.22,141.6,38.7,138.13,28.36,24.62,36.33,0.04,-272.74,-272.74,-52,554,-922,23.1,4.9,-18.9,23.1,5.0,-18.6,5.73,2.44,-25.3,27.0
2012-04-11 01:32:00,0.0,1.9168,0.0011,403.05,0.24,150.3,39.2,138.13,28.36,24.62,36.34,0.04,-272.74,-272.74,-52,554,-921,23.1,4.8,-19.0,23.1,5.0,-18.7,5.73,2.35,-25.2,27.2
2012-04-11 01:33:00,0.0,1.9173,0.0009,402.97,0.21,175.5,38.1,138.12,28.36,24.62,36.34,0.04,-272.74,-272.73,-52,554,-921,23.2,4.8,-19.0,23.1,4.9,-18.7,5.73,2.28,-25.1,27.4
2012-04-11 01:34:00,0.0,1.9175,0.0011,403.11,0.24,169.8,37.7,138.12,28.36,24.62,36.35,0.04,-272.74,-272.74,-52,554,-921,23.2,4.8,-19.0,23.1,5.0,-18.7,5.73,2.34,-25.0,27.5
2012-04-11 01:35:00,0.0,1.9177,0.0010,403.07,0.27,189.4,31.3,138.11,28.37,24.62,36.34,0.04,-272.74,-272.74,-52,554,-921,23.2,4.8,-19.1,23.2,4.9,-18.7,5.73,2.41,-24.9,27.7
2012-04-11 01:36:00,0.0,1.9180,0.0008,403.18,0.30,190.3,28.2,138.11,28.39,24.62,36.34,0.04,-272.73,-272.74,-52,554,-921,23.3,4.7,-19.2,23.2,4.9,-18.8,5.73,2.38,-24.9,27.8
2012-04-11 01:37:00,0.0,1.9184,0.0009,403.07,0.26,208.3,31.5,138.11,28.40,24.62,36.35,0.04,-272.73,-272.74,-52,554,-921,23.3,4.7,-19.2,23.3,4.9,-18.8,5.73,2.31,-24.8,27.9
2012-04-11 01:38:00,0.0,1.9182,0.0009,403.10,0.27,215.0,38.0,138.10,28.42,24.62,36.35,0.04,-272.74,-272.74,-52,554,-921,23.3,4.7,-19.1,23.3,4.9,-18.7,5.73,2.30,-24.7,28.0
2012-04-11 01:39:00,0.0,1.9189,0.0009,403.19,0.21,214.6,30.5,138.10,28.43,24.62,36.35,0.04,-272.73,-272.74,-52,554,-921,23.3,4.7,-19.1,23.3,4.9,-18.7,5.73,2.35,-24.6,28.1
2012-04-11 01:40:00,0.0,1.9198,0.0010,403.37,0.26,225.0,36.5,138.10,28.45,24.62,36.35,0.04,-272.74,-272.74,-52,554,-921,23.4,4.7,-19.2,23.4,4.9,-18.8,5.73,2.40,-24.5,28.1
2012-04-11 01:41:00,0.0,1.9202,0.0010,403.75,0.21,224.0,34.6,138.10,28.47,24.62,36.35,0.04,-272.74,-272.74,-52,555,-921,23.4,4.6,-19.4,23.4,4.8,-19.0,5.73,2.38,-24.5,28.2
2012-04-11 01:42:00,0.0,1.9207,0.0008,403.88,0.23,224.3,33.8,138.10,28.48,24.62,36.36,0.04,-272.74,-272.74,-52,554,-921,23.5,4.5,-19.6,23.4,4.7,-19.2,5.73,2.31,-24.4,28.3
2012-04-11 01:43:00,0.0,1.9194,0.0010,403.57,0.28,232.2,32.6,138.09,28.50,24.62,36.35,0.04,-272.73,-272.73,-51,555,-921,23.5,4.4,-19.7,23.5,4.6,-19.3,5.73,2.28,-24.3,28.1
2012-04-11 01:44:00,0.0,1.9201,0.0011,403.53,0.26,230.9,37.1,138.10,28.52,24.62,36.35,0.04,-272.73,-272.73,-52,555,-922,23.5,4.4,-19.8,23.5,4.6,-19.4,5.73,2.44,-24.3,27.6
2012-04-11 01:45:00,0.0,1.9201,0.0009,403.67,0.22,231.4,34.1,138.10,28.53,24.62,36.35,0.04,-272.74,-272.74,-52,555,-922,23.5,4.4,-19.9,23.5,4.5,-19.5,5.73,2.26,-24.4,27.2
2012-04-11 01:46:00,0.0,1.9217,0.0010,403.67,0.27,221.4,38.5,138.10,28.54,24.62,36.35,0.04,-272.74,-272.73,-52,556,-922,23.5,4.3,-20.0,23.4,4.5,-19.6,5.73,2.46,-24.4,26.9
2012-04-11 01:47:00,0.0,1.9228,0.0009,403.59,0.20,219.6,33.1,138.11,28.54,24.62,36.35,0.04,-272.73,-272.73,-52,556,-922,23.5,4.3,-20.1,23.4,4.5,-19.7,5.73,2.24,-24.5,26.7
2012-04-11 01:48:00,0.0,1.9226,0.0009,403.72,0.23,212.5,34.8,138.11,28.54,24.62,36.35,0.04,-272.74,-272.74,-52,556,-922,23.4,4.3,-20.3,23.3,4.4,-19.8,5.73,2.42,-24.6,26.6
2012-04-11 01:49:00,0.0,1.9227,0.0008,403.95,0.24,206.5,34.6,138.12,28.53,24.62,36.35,0.04,-272.74,-272.74,-52,556,-922,23.4,4.2,-20.5,23.3,4.3,-20.1,5.73,2.38,-24.7,26.4
2012-04-11 01:50:00,0.0,1.9220,0.0008,403.97,0.28,184.6,32.8,138.12,28.52,24.62,36.35,0.04,-272.74,-272.74,-52,556,-922,23.4,4.1,-20.8,23.3,4.2,-20.4,5.73,2.25,-24.8,26.2
2012-04-11 01:51:00,0.0,1.9204,0.0011,404.35,0.27,192.1,34.2,138.12,28.51,24.62,36.34,0.04,-272.74,-272.74,-52,555,-922,23.4,4.0,-21.0,23.3,4.1,-20.7,5.73,2.45,-24.8,26.1
2012-04-11 01:52:00,0.0,1.9194,0.0013,403.98,0.26,176.8,32.5,138.13,28.50,24.62,36.35,0.04,-272.74,-272.74,-52,555,-922,23.3,3.9,-21.2,23.2,4.1,-20.9,5.73,2.35,-24.9,26.0
2012-04-11 01:53:00,0.0,1.9189,0.0007,403.85,0.22,172.8,40.9,138.13,28.48,24.62,36.34,0.04,-272.73,-272.74,-52,556,-922,23.3,3.9,-21.3,23.2,4.0,-21.0,5.73,2.27,-25.0,25.8
2012-04-11 01:54:00,0.0,1.9179,0.0008,403.78,0.27,162.4,34.9,138.13,28.46,24.62,36.34,0.04,-272.74,-272.74,-52,555,-922,23.3,4.0,-21.2,23.2,4.1,-20.8,5.73,2.46,-25.0,25.7
2012-04-11 01:55:00,0.0,1.9179,0.0009,403.77,0.23,159.4,41.5,138.13,28.45,24.61,36.34,0.04,-272.74,-272.74,-52,555,-922,23.2,4.0,-21.0,23.1,4.2,-20.7,5.73,2.34,-25.0,25.7
2012-04-11 01:56:00,0.0,1.9174,0.0009,403.52,0.28,150.0,34.7,138.14,28.43,24.62,36.34,0.04,-272.74,-272.74,-53,555,-922,23.2,4.1,-20.9,23.1,4.2,-20.6,5.73,2.27,-25.1,26.1
2012-04-11 01:57:00,0.0,1.9175,0.0009,403.67,0.24,152.2,31.8,138.13,28.42,24.62,36.33,0.04,-272.73,-272.73,-52,555,-922,23.2,4.1,-20.7,23.1,4.3,-20.4,5.73,2.44,-25.1,26.6
2012-04-11 01:58:00,0.0,1.9178,0.0009,403.66,0.25,169.0,36.6,138.13,28.41,24.62,36.34,0.04,-272.74,-272.74,-53,555,-922,23.2,4.2,-20.7,23.1,4.3,-20.3,5.73,2.33,-25.0,27.0
2012-04-11 01:59:00,0.0,1.9180,0.0010,403.37,0.23,165.8,36.2,138.12,28.41,24.62,36.34,0.04,-272.74,-272.74,-52,555,-922,23.2,4.2,-20.7,23.2,4.3,-20.3,5.73,2.29,-24.9,27.3
2012-04-11 02:00:00,1.0,1.8926,0.0178,386.91,11.39,181.0,33.4,138.12,28.41,24.62,36.35,0.04,-272.73,-272.74,-52,515,-921,23.3,4.2,-20.5,23.2,4.3,-20.2,5.73,2.35,-24.8,27.5
2012-04-11 02:01:00,1.0,1.8726,0.0009,373.98,0.22,207.4,33.8,138.12,28.41,24.62,36.36,0.04,-272.74,-272.74,-52,513,-921,23.3,4.2,-20.4,23.3,4.4,-20.0,5.73,2.40,-24.7,27.6
2012-04-11 02:02:00,1.0,1.8730,0.0010,374.04,0.24,223.2,39.8,138.11,28.42,24.62,36.36,0.04,-272.74,-272.74,-52,513,-922,23.3,4.2,-20.5,23.3,4.4,-20.1,5.73,2.34,-24.6,27.8
2012-04-11 02:03:00,1.0,1.8733,0.0009,373.98,0.23,226.6,36.9,138.11,28.43,24.62,36.36,0.04,-272.74,-272.74,-52,513,-921,23.4,4.2,-20.5,23.3,4.3,-20.1,5.73,2.29,-24.5,27.9
2012-04-11 02:04:00,1.0,1.8733,0.0009,374.06,0.22,234.7,32.1,138.10,28.45,24.62,36.36,0.04,-272.73,-272.74,-52,513,-921,23.4,4.1,-20.5,23.3,4.3,-20.2,5.73,2.32,-24.4,28.0
2012-04-11 02:05:00,0.0,1.8995,0.0178,390.37,11.38,238.1,31.7,138.10,28.47,24.62,36.35,0.04,-272.74,-272.74,-52,554,-921,23.4,4.1,-20.7,23.4,4.3,-20.3,5.73,2.36,-24.3,28.2
2012-04-11 02:06:00,0.0,1.9206,0.0009,403.65,0.29,230.1,36.6,138.10,28.48,24.62,36.35,0.04,-272.74,-272.74,-52,554,-922,23.5,4.0,-20.8,23.4,4.2,-20.4,5.73,2.40,-24.2,28.2
2012-04-11 02:07:00,0.0,1.9211,0.0008,403.59,0.27,240.6,32.2,138.10,28.50,24.61,36.36,0.04,-272.73,-272.73,-52,555,-921,23.5,4.0,-20.9,23.5,4.2,-20.5,5.73,2.35,-24.2,28.3
2012-04-11 02:08:00,0.0,1.9209,0.0009,403.69,0.26,247.2,37.2,138.10,28.52,24.62,36.36,0.04,-272.74,-272.74,-52,555,-921,23.6,4.0,-20.9,23.5,4.1,-20.5,5.73,2.29,-24.1,28.4
2012-04-11 02:09:00,0.0,1.9214,0.0010,403.84,0.27,257.3,37.3,138.09,28.54,24.62,36.35,0.04,-272.74,-272.74,-52,555,-921,23.6,4.0,-20.9,23.6,4.1,-20.5,5.73,2.32,-24.0,28.4
2012-04-11 02:10:00,0.0,1.9214,0.0011,403.81,0.24,252.2,29.2,138.09,28.56,24.62,36.35,0.04,-272.74,-272.73,-52,555,-922,23.7,4.0,-20.9,23.6,4.1,-20.4,5.73,2.45,-24.0,27.8
2012-04-11 02:11:00,0.0,1.9213,0.0009,403.89,0.26,255.0,36.2,138.10,28.57,24.62,36.35,0.04,-272.74,-272.74,-52,555,-922,23.7,4.0,-20.8,23.6,4.2,-20.4,5.73,2.25,-24.0,27.4
2012-04-11 02:12:00,0.0,1.9212,0.0007,403.75,0.24,247.7,32.3,138.10,28.58,24.62,36.36,0.04,-272.74,-272.74,-52,556,-922,23.7,4.0,-20.7,23.6,4.2,-20.3,5.73,2.47,-24.1,27.0
2012-04-11 02:13:00,0.0,1.9217,0.0010,403.72,0.29,238.1,32.7,138.10,28.59,24.61,36.35,0.04,-272.74,-272.74,-52,556,-922,23.6,4.1,-20.7,23.6,4.2,-20.2,5.73,2.25,-24.2,26.8
2012-04-11 02:14:00,0.0,1.9214,0.0011,403.61,0.22,231.9,33.7,138.11,28.59,24.62,36.35,0.04,-272.74,-272.74,-52,556,-922,23.6,4.1,-20.7,23.5,4.2,-20.3,5.73,2.41,-24.3,26.6
2012-04-11 02:15:00,0.0,1.9212,0.0009,403.54,0.25,232.0,37.9,138.11,28.58,24.62,36.36,0.04,-272.74,-272.74,-52,556,-922,23.6,4.0,-20.7,23.5,4.2,-20.3,5.73,2.39,-24.3,26.6
2012-04-11 02:16:00,0.0,1.9209,0.0009,403.50,0.27,214.5,32.3,138.12,28.57,24.62,36.35,0.04,-272.74,-272.74,-52,556,-922,23.6,4.0,-20.7,23.5,4.2,-20.3,5.73,2.26,-24.4,26.4
2012-04-11 02:17:00,0.0,1.9209,0.0009,403.49,0.28,220.7,36.5,138.12,28.57,24.62,36.35,0.04,-272.73,-272.74,-53,556,-922,23.6,4.0,-20.8,23.4,4.2,-20.4,5.73,2.45,-24.5,26.3